Content
SEND FEEDBACK

Daily
Averages
Monthly
Summary
United States of America

BOSTON, MASSACHUSETTS


Home > North America > United States > Massachusetts
Elevation: 4 feet     Latitude: 42 22N     Longitude: 071 02W

WEATHER
 
SELECT A DAY
Number of Records: 202,798;   Date Range: 1/1/95 - 8/14/14
 
SHARE

PRINT THIS DATA

[ ← Previous Day ]
WEATHER ALMANAC - MAY 3, 2013
[ Next Day → ]
[ °C ]   °F
Weather ElementAverageHighLow
Temperature49.3 °F52 °F (9:54 am)44.1 °F (4:54 am)
Dewpoint38.7 °F45 °F (9:54 am) (7:00 pm)
Humidity70.8 %83 % (7:54 am)61 % (6:54 am)
Barometer30.47 in30.53 in (7:54 am)30.38 in (11:54 pm)
Wind Speed11.1 mph18.4 mph (11:54 am)
Weather ElementAverage
Visibility10 mi
Wind DirectionESE (112 °)

Weather ElementTotal
Precipitation---
Heating Degree Days17 (Base 65)
Averaged from 25 records on May 3, 2013
WEATHER CONDITIONS BREAKOUT
WIND DIRECTION BREAKOUT
WEATHER BY HOUR - MAY 3, 2013
[ °C ]   °F
Local TimeTemperatureDewpointHumidityBarometerVisibilityWind DirectionWind SpeedGust SpeedPrecipitationEventsConditions
1:54 AM46.9 °F39.0 °F74 %30.47 in10.0 miNorth (10°)11.5 mphClear
2:54 AM46.0 °F37.9 °F73 %30.46 in10.0 miNorth (360°)11.5 mphClear
3:54 AM45.0 °F0.0 °F30.47 in10.0 miNorth (360°)9.2 mphClear
4:54 AM44.1 °F33.8 °F67 %30.48 in10.0 miNorth (350°)9.2 mphClear
5:54 AM44.1 °F33.8 °F67 %30.50 in10.0 miNorth (10°)10.4 mphClear
6:54 AM46.9 °F34.0 °F61 %30.51 in10.0 miNorth (10°)9.2 mphPartly Cloudy
7:54 AM48.0 °F43.0 °F83 %30.53 in10.0 miENE (60°)17.3 mphMostly Cloudy
8:54 AM50.0 °F44.1 °F80 %30.53 in10.0 miENE (60°)15.0 mphScattered Clouds
9:54 AM52.0 °F45.0 °F77 %30.53 in10.0 miENE (60°)16.1 mphPartly Cloudy
10:54 AM52.0 °F42.1 °F69 %30.53 in10.0 miENE (60°)16.1 mphScattered Clouds
11:54 AM50.0 °F41.0 °F71 %30.52 in10.0 miENE (60°)18.4 mphMostly Cloudy
12:01 PM51.8 °F42.8 °F71 %30.52 in10.0 miENE (60°)15.0 mphMostly Cloudy
12:21 PM51.8 °F42.8 °F71 %30.51 in10.0 miENE (60°)16.1 mphMostly Cloudy
12:54 PM52.0 °F43.0 °F71 %30.50 in10.0 miEast (80°)15.0 mphScattered Clouds
1:54 PM52.0 °F42.1 °F69 %30.49 in10.0 miEast (80°)13.8 mphPartly Cloudy
2:54 PM52.0 °F43.0 °F71 %30.47 in10.0 miEast (80°)15.0 mphPartly Cloudy
3:54 PM51.1 °F43.0 °F74 %30.45 in10.0 miEast (80°)10.4 mphScattered Clouds
4:54 PM52.0 °F43.0 °F71 %30.44 in10.0 miEast (80°)13.8 mphPartly Cloudy
5:54 PM51.1 °F39.9 °F66 %30.43 in10.0 miEast (80°)16.1 mphPartly Cloudy
6:54 PM48.0 °F39.9 °F74 %30.43 in10.0 miEast (100°)8.1 mphClear
7:54 PM48.0 °F39.9 °F74 %30.42 in10.0 miCalmClear
8:54 PM48.0 °F39.0 °F71 %30.43 in10.0 miCalmClear
9:54 PM48.9 °F39.0 °F69 %30.43 in10.0 miNNE (20°)3.5 mphClear
10:54 PM50.0 °F37.9 °F63 %30.40 in10.0 miNorth (350°)3.5 mphClear
11:54 PM50.0 °F37.9 °F63 %30.38 in10.0 miNNW (330°)3.5 mphClear
Hourly data recorded from KBOS, located miles away from Boston, Massachusetts







STORIES FROM OUR PARTNERS